Location: Clarion
(42.7316°N, 93.7330°W)
Time: 21:20:45
(UTC+00:00)

NOSS 0 Rocket - Pass Details

Date: 22 April 2026
Orbit: 935 x 953 km, 70.0° (Epoch: 12 May)

Event Time Altitude Azimuth Distance (km) Brightness Sun altitude
Rises 01:30:29 0° 212° (SSW) 3,613 7.1 -5.4°
Reaches altitude 10° 01:33:01 10° 214° (SW) 2,672 6.5 -5.8°
Maximum altitude 01:39:12 69° 298° (WNW) 1,015 4.4 -6.8°
Drops below altitude 10° 01:45:26 10° 22° (NNE) 2,682 6.4 -7.9°
Sets 01:47:59 0° 25° (NNE) 3,629 7.0 -8.3°
